Location: Newark
(43.6583°N, 1.6617°E)
Time: 00:29:27
(UTC+00:00)

Courier 1B - Visible Passes

Search period start: 24 August 2019 00:00
Search period end: 03 September 2019 00:00
Orbit: 962 x 1209 km, 28.3° (Epoch: 23 August)

Date Brightness Start Highest point End Pass type
(mag) Time Alt. Az. Time Alt. Az. Time Alt. Az.
24 Aug 9.1 19:19:14 10° SW 19:23:48 20° S 19:28:18 10° SE visible
24 Aug 9.5 21:14:24 10° SW 21:15:57 12° SSW 21:15:57 12° SSW visible
25 Aug 9.3 20:19:50 10° SW 20:23:13 15° SSW 20:25:25 12° S visible
26 Aug 9.3 19:25:41 10° SW 19:29:47 17° SSW 19:33:47 10° SSE visible
28 Aug 9.5 19:32:51 10° SW 19:35:40 13° SSW 19:38:27 10° S visible
